Regional Weather Roundup
Issued by NWS

Home | Current Version | Previous Version | Graphics & Text | Print | Product List | Glossary Off
Versions: 1 2 3 4 5 6 7 8 9 10 11 12 13 14 15 16 17 18 19 20 21 22 23 24 25 26 27 28 29 30 31 32 33 34 35 36 37 38 39 40 41 42 43 44 45 46 47 48 49 50

000
ASUS43 KDTX 260410
RWRMI
MICHIGAN HOURLY REGIONAL WEATHER ROUNDUP
NATIONAL WEATHER SERVICE DETROIT/PONTIAC MI
1200 AM EDT TUE SEP 26 2017

NOTE: "FAIR" INDICATES FEW OR NO CLOUDS BELOW 12,000 FEET WITH NO
SIGNIFICANT WEATHER AND/OR OBSTRUCTION TO VISIBILITY.

MIZ047>049-052>055-059>063-066>070-074>076-081>083-260500-
SOUTHEAST LOWER MICHIGAN

CITY           SKY/WX    TMP DP  RH WIND       PRES   REMARKS
ADRIAN         CLEAR     67  63  87 N3        30.00S
ALMA           CLEAR     62  57  84 W12       29.98S
ANN ARBOR      PTCLDY    64  64 100 CALM      29.99F
BAD AXE        PTCLDY    68  63  84 CALM      29.99F
CARO           CLEAR     68  64  86 CALM      29.98S
DETROIT CITY   MOCLDY    74  67  78 S3        29.99F
DETROIT        MOCLDY    74  70  87 CALM      29.99F
FLINT          CLEAR     73  61  65 S5        29.99S
GROSSE ILE     CLOUDY    74  69  85 CALM      29.98S
HILLSDALE      CLOUDY    70  61  73 SE3       30.01S
HOWELL         CLEAR     70  62  75 CALM      30.00S

CITY           SKY/WX    TMP DP  RH WIND       PRES   REMARKS
JACKSON        CLEAR     68  62  81 CALM      30.00S
LAMBERTVILLE   PTCLDY    69  66  89 CALM      29.98S
LANSING        PTCLDY    74  60  61 S3        29.99S
LAPEER         FAIR      66  63  91 CALM      30.00S
MASON          CLEAR     70  62  76 S3        29.99F
MONROE         CLOUDY    71  67  87 CALM      29.98F
MT. CLEMENS    PTCLDY    72  71  98 CALM      29.98S
PONTIAC        PTCLDY    69  64  84 CALM      30.00R
PORT HOPE        N/A     74  67  78 S7        29.97F
PORT HURON     FOG       64  64 100 CALM      30.00S VSB 3/4
TRI CITIES     CLEAR     70  68  93 CALM      29.98R
MIDLAND        FOG       65  65  99 CALM      29.97S VSB 1
TROY           PTCLDY    74  63  68 CALM      30.02S
SAGINAW HB     CLEAR     68  61  77 SE5       29.97S
$$
MIZ043>046-050>051-056>058-064>065-071>073-077>080-260500-
SOUTHWEST LOWER MICHIGAN

CITY           SKY/WX    TMP DP  RH WIND       PRES   REMARKS
BATTLE CREEK   CLEAR     69  59  70 CALM      29.99S
BENTON HARBOR  CLEAR     64  60  87 CALM      29.96S
BIG RAPIDS     CLEAR     63  56  79 CALM      29.98S
COLDWATER      CLEAR     66  63  90 CALM      29.99S
FREMONT        FAIR      65  61  88 E3        29.97S
HOLLAND        CLEAR     64  59  83 CALM      29.97S
GRAND RAPIDS   MOCLDY    69  60  73 CALM      29.98S
IONIA          FAIR      65  56  72 CALM      29.98S
KALAMAZOO      CLEAR     67  58  72 CALM      29.99R
LUDINGTON      CLEAR     59  58  96 CALM      29.95S
MARSHALL       CLEAR     67  61  79 CALM      29.99S
MOUNT PLEASANT CLEAR     66  63  90 CALM      29.98S
MUSKEGON       CLEAR     66  59  78 SE5       29.96F
SOUTH HAVEN    CLEAR     64  61  89 CALM      29.97S
$$
MIZ016>042-260500-
NORTHERN LOWER MICHIGAN

CITY           SKY/WX    TMP DP  RH WIND       PRES   REMARKS
ALPENA         PTCLDY    65  64  97 CALM      29.98S
BEAVER ISLAND  CLEAR     64  62  94 W5        29.97R
BELLAIRE       CLEAR     62  60  94 CALM      29.97S FOG
CADILLAC       CLEAR     62  55  77 CALM      30.00F
CHARLEVOIX     CLEAR     66  60  80 CALM      29.99S
FRANKFORT      CLEAR     61  61  99 CALM      29.96S
GAYLORD        CLEAR     66  59  78 CALM      30.00S
GRAYLING       CLEAR     59  55  84 CALM      30.01S
HARBOR SPRINGS CLEAR     65  62  93 CALM      29.96R
HOUGHTON LAKE  CLEAR     65  61  87 CALM      30.00S
MANISTEE       CLEAR     62  60  93 E5        29.96S
OSCODA         PTCLDY    67  65  94 S7        29.98S
PELLSTON       CLEAR     60  59  96 CALM      29.96S
ROGERS CITY    CLEAR     72  65  78 SW6       29.98S
TRAVERSE CITY  CLEAR     67  61  81 CALM      29.95S
$$
MIZ007>008-015-260500-
EASTERN UPPER MICHIGAN

CITY           SKY/WX    TMP DP  RH WIND       PRES   REMARKS
KINROSS        CLEAR     65  63  93 SE6       29.97R
MACKINAC ISLAN CLEAR     66  66  98 CALM      29.96S FOG
NEWBERRY       PTCLDY    63  62  97 CALM      29.97S
S. S. MARIE    CLOUDY    70  64  81 CALM      29.96S
MUNISING         N/A     64  64 100 NW8       29.96S
$$
MIZ004>006-011>014-085-260500-
CENTRAL UPPER MICHIGAN

CITY           SKY/WX    TMP DP  RH WIND       PRES   REMARKS
MANISTIQUE     HAZE      59  53  81 CALM      29.95S VSB 1/4
MENOMINEE      CLEAR     70  63  78 SW5       29.93S
SAWYER-GWINN   FOG       61  60  97 NW8       30.01R VSB 1/2
$$
MIZ001>003-009>011-084-260500-
WESTERN UPPER MICHIGAN

CITY           SKY/WX    TMP DP  RH WIND       PRES   REMARKS
IRON MOUNTAIN  CLOUDY    67  63  87 SW5       29.98R
HOUGHTON       LGT RAIN  55  53  93 NE8       29.99F
COPPER HARBOR    N/A     58  56  93 NE7       30.03R
IRONWOOD       CLOUDY    57  57 100 NE7       29.99S
$$

ABBREVIATIONS USED IN REMARKS
   TC - TEMPERATURE IN CELSIUS
  WCI - WIND CHILL INDEX
   HX - HEAT INDEX
  VSB - VISIBILITY





USA.gov is the U.S. government's official web portal to all federal, state and local government web resources and services.